Location: Kuppenheim
(48.8299°N, 8.2568°E)
Time: 08:09:35
(UTC+00:00)

N. Korean satellite - Pass Details

Date: 28 November 2022
Orbit: 407 x 442 km, 97.3° (Epoch: 04 February)

Event Time Altitude Azimuth Distance (km) Brightness Sun altitude
Rises 05:48:13 0° 0° (N) 2,532 10.0 -10.6°
Reaches altitude 10° 05:50:36 10° 345° (NNW) 1,650 8.9 -10.3°
Maximum altitude 05:53:21 21° 294° (WNW) 1,102 7.7 -9.8°
Drops below altitude 10° 05:56:05 10° 243° (WSW) 1,633 8.8 -9.4°
Sets 05:58:26 0° 227° (SW) 2,498 9.9 -9.1°
